Terminal Aerodrome Forecast
Issued by NWS

Home | Current Version | Previous Version | Text Only | Print | Product List | Glossary On
Versions: 1 2 3 4 5 6 7 8 9 10 11 12 13 14 15 16 17 18 19 20 21 22
000
FTUS43 KGRR 241300 AAA
TAFBTL
TAF AMD
KBTL 241331Z 2414/2512 20003KT 6SM HZ OVC026
     FM241400 22008KT 4SM BR OVC022
     FM241700 23006KT 6SM HZ OVC030
     FM241900 23009KT P6SM BKN035
     FM251100 20007KT P6SM OVC020=

USA.gov is the U.S. government's official web portal to all federal, state and local government web resources and services.